CAPE
5 445 736 716 611 522 481 363 284 253 277 298 318 305 315 259 178 140 96 33 6 0 0 0 0 0 0 0 0 0 0 0 0 196 127 202 369 218 107 85 275 409 521
58 604 860 842 637 583 453 322 281 267 287 273 280 316 273 179 64 5 0 0 0 0 0 0 0 0 0 0 0 0 0 0 0 25 185 107 117 328 238 59 270 404 502
2 597 817 750 634 602 450 398 325 302 298 249 319 250 169 38 0 0 0 0 0 0 0 0 0 0 0 0 0 0 0 0 0 1 207 210 181 173 165 111 4 277 223
131 568 692 565 587 486 465 482 383 387 330 299 200 121 56 0 0 0 0 0 0 0 0 0 0 0 0 0 0 0 0 0 13 119 75 40 75 216 126 73 82 4 0
89 437 593 483 412 374 512 540 422 362 318 203 86 63 7 0 0 0 0 0 0 0 0 0 0 0 0 0 0 0 0 0 1 1 0 0 0 0 5 54 30 0 0
93 306 261 263 351 425 519 444 355 305 215 107 62 2 0 0 0 0 0 0 0 0 0 0 0 0 0 0 0 0 0 0 0 0 0 0 0 0 0 0 0 0 0
77 151 154 295 414 496 479 392 282 217 125 90 7 0 0 0 0 0 0 0 0 0 0 0 0 0 0 0 0 0 0 0 0 0 0 0 10 28 25 36 31 5 0
99 144 194 288 379 427 411 304 221 135 63 31 0 0 0 0 0 0 0 0 0 0 0 0 0 0 0 0 0 0 0 0 0 0 0 0 0 1 11 0 0 4 47
71 155 257 363 397 412 317 225 147 69 44 9 0 0 0 0 0 0 0 0 0 0 0 0 0 0 0 0 0 0 0 0 0 0 0 0 0 0 0 0 0 0 1
68 100 302 325 480 402 307 163 98 48 20 0 0 0 0 0 0 0 0 0 0 0 0 0 0 0 0 0 0 0 0 0 0 0 0 0 0 0 0 0 0 0 2
57 101 183 376 397 315 213 128 61 31 2 0 0 0 0 0 0 0 0 0 0 0 0 0 0 0 0 0 0 0 0 0 0 0 0 0 0 0 0 0 0 0 1
84 171 172 358 285 225 131 8 0 2 0 0 0 0 0 0 0 0 0 0 0 0 0 0 0 0 0 0 0 0 0 0 0 0 0 0 0 0 0 0 0 0 1
102 157 277 267 188 28 2 0 0 0 0 0 0 5 1 133 3 16 2 0 0 0 0 0 0 0 0 0 0 0 0 0 0 0 0 0 0 0 0 0 0 0 0
115 163 157 141 64 1 2 0 0 51 123 85 319 372 401 342 275 157 71 56 7 0 0 0 0 0 0 0 0 0 0 0 0 0 0 0 0 0 0 0 0 0 0
50 38 6 7 0 7 93 108 186 323 347 339 345 261 331 397 181 60 4 0 0 0 0 0 0 0 0 0 0 0 0 0 0 0 0 0 0 0 0 0 0 0 0
0 2 0 0 0 158 106 53 150 212 268 230 228 195 183 197 59 0 0 0 0 0 0 0 0 0 0 0 0 0 0 0 0 0 0 0 0 0 0 0 0 0 0
0 0 0 86 154 40 19 51 62 97 93 60 22 14 7 3 0 0 0 0 0 0 0 0 0 0 0 0 0 0 0 0 0 0 0 0 0 0 0 0 0 0 0
0 0 4 276 19 0 0 0 0 0 0 0 0 0 0 0 0 0 0 0 0 0 0 0 0 0 0 0 0 0 0 0 0 0 0 0 0 0 0 0 0 0 0
3 61 312 96 38 11 0 0 0 0 0 0 0 0 0 0 0 0 0 0 0 0 0 0 0 0 0 0 0 0 0 0 0 0 0 0 0 0 0 0 0 0 0
85 281 264 71 10 0 0 0 0 0 0 0 0 0 0 0 0 0 0 0 0 0 0 0 0 0 0 0 0 0 0 0 0 0 0 0 0 0 0 0 0 0 0
284 321 246 80 0 0 0 0 0 0 0 0 0 0 0 0 0 0 0 0 0 0 0 0 0 0 0 0 0 0 0 0 0 0 0 0 0 0 0 0 0 0 0
404 347 211 92 9 0 0 0 0 0 0 0 0 0 0 0 0 0 0 0 0 0 0 0 0 0 0 0 0 0 0 0 0 0 0 0 0 0 0 0 0 0 0
483 360 304 224 112 8 110 3 0 0 0 0 0 0 0 0 0 0 0 0 0 0 0 0 0 0 0 0 0 0 0 0 0 0 0 0 0 0 0 0 0 0 0
537 425 385 267 161 33 215 0 0 0 0 0 0 0 0 0 0 0 0 0 0 0 0 0 0 0 0 0 0 0 0 0 0 0 0 0 0 0 0 0 0 0 0
585 503 376 289 135 180 34 0 0 0 0 0 0 0 0 0 0 0 0 0 0 0 0 0 0 0 0 0 0 0 0 0 0 0 0 0 0 0 0 0 0 0 0
506 386 314 314 301 17 0 0 0 0 0 0 0 0 0 0 0 0 0 0 0 0 0 0 0 0 0 0 0 0 0 1 8 2 0 0 0 0 0 0 0 0 0
CIN
-119 -50 -17 -27 -11 -6 -12 -19 -44 -55 -50 -47 -41 -45 -28 -23 -40 -62 -78 -133 -59 0 0 0 0 0 0 0 0 0 0 0 0 -24 -20 -9 -4 -20 -60 -71 -32 -18 -15
-217 -51 -21 -13 -5 -1 -9 -21 -36 -45 -39 -42 -43 -34 -29 -45 -105 -11 0 0 0 0 0 0 0 0 0 0 0 0 0 0 0 -21 -13 -15 -10 -3 -12 -65 -34 -15 -11
-121 -34 -24 -21 -7 -3 -3 -2 -27 -45 -30 -47 -26 -42 -54 -126 0 0 0 0 0 0 0 0 0 0 0 0 0 0 0 0 0 -15 -17 -19 -17 -20 -23 -33 -7 -11 -15
-138 -13 -12 -34 -6 -4 -3 -2 -23 -12 -19 -37 -64 -91 -132 0 0 0 0 0 0 0 0 0 0 0 0 0 0 0 0 0 -57 -59 -49 -48 -48 -31 -38 -43 -36 -13 0
-103 -47 -18 -19 -11 -18 -3 -1 -13 -7 -33 -75 -113 -126 -169 0 0 0 0 0 0 0 0 0 0 0 0 0 0 0 0 0 -17 -18 0 0 0 0 -6 -29 -34 0 0
-55 -25 -62 -73 -24 -21 -6 -12 -15 -33 -74 -107 -135 -17 0 0 0 0 0 0 0 0 0 0 0 0 0 0 0 0 0 0 0 0 0 0 0 0 0 0 0 0 0
-33 -34 -34 -20 -8 -13 -5 -13 -20 -67 -119 -116 -57 0 0 0 0 0 0 0 0 0 0 0 0 0 0 0 0 0 0 0 0 0 0 0 -85 -63 -53 -30 -14 -1 0
-6 -27 -18 -6 -42 -10 -15 -38 -79 -140 -194 -195 0 0 0 0 0 0 0 0 0 0 0 0 0 0 0 0 0 0 0 0 0 0 0 0 0 -10 -62 0 0 -5 -5
-17 -23 -21 -20 -11 -16 -54 -89 -152 -246 -237 -326 0 0 0 0 0 0 0 0 0 0 0 0 0 0 0 0 0 0 0 0 0 0 0 0 0 0 0 0 0 0 0
-11 -25 -10 -17 -14 -27 -53 -135 -228 -307 -377 0 0 0 0 0 0 0 0 0 0 0 0 0 0 0 0 0 0 0 0 0 0 0 0 0 0 0 0 0 0 0 0
-6 -13 -17 -45 -19 -53 -96 -205 -326 -397 -339 0 0 0 0 0 0 0 0 0 0 0 0 0 0 0 0 0 0 0 0 0 0 0 0 0 0 0 0 0 0 0 0
-35 -6 -16 -30 -54 -85 -163 -129 0 -184 0 0 0 0 0 0 0 0 0 0 0 0 0 0 0 0 0 0 0 0 0 0 0 0 0 0 0 0 0 0 0 0 0
-71 -12 -18 -39 -98 -229 -38 0 0 0 0 0 0 -229 -40 -122 -155 -155 -163 0 0 0 0 0 0 0 0 0 0 0 0 0 0 0 0 0 0 0 0 0 0 0 0
-27 -30 -62 -97 -150 -30 -211 0 0 -176 -113 -100 -34 -30 -25 -22 -29 -62 -48 -63 -44 0 0 0 0 0 0 0 0 0 0 0 0 0 0 0 0 0 0 0 0 0 0
-61 -100 -173 -98 0 -214 -163 -144 -106 -70 -62 -56 -59 -69 -58 -37 -43 -76 -45 0 0 0 0 0 0 0 0 0 0 0 0 0 0 0 0 0 0 0 0 0 0 0 0
0 -34 0 0 0 -79 -120 -152 -122 -107 -102 -106 -118 -108 -118 -85 -140 -1 0 0 0 0 0 0 0 0 0 0 0 0 0 0 0 0 0 0 0 0 0 0 0 0 0
0 0 -17 -128 -127 -190 -191 -147 -149 -144 -160 -196 -243 -209 -188 -200 0 0 0 0 0 0 0 0 0 0 0 0 0 0 0 0 0 0 0 0 0 0 0 0 0 0 0
0 0 -37 -109 -233 0 0 0 0 0 0 0 0 0 0 0 0 0 0 0 0 0 0 0 0 0 0 0 0 0 0 0 0 0 0 0 0 0 0 0 0 0 0
-138 -236 -167 -246 -262 -304 0 0 0 0 0 0 0 0 0 0 0 0 0 0 0 0 0 0 0 0 0 0 0 0 0 0 0 0 0 0 0 0 0 0 0 0 0
-228 -174 -197 -239 -265 0 0 0 0 0 0 0 0 0 0 0 0 0 0 0 0 0 0 0 0 0 0 0 0 0 0 0 0 0 0 0 0 0 0 0 0 0 0
-190 -180 -173 -222 0 0 0 0 0 0 0 0 0 0 0 0 0 0 0 0 0 0 0 0 0 0 0 0 0 0 0 0 0 0 0 0 0 0 0 0 0 0 0
-160 -191 -204 -226 -254 -14 -4 0 0 0 0 0 0 0 0 0 0 0 0 0 0 0 0 0 0 0 0 0 0 0 0 0 0 0 0 0 0 0 0 0 0 0 0
-147 -181 -188 -180 -168 -224 -103 -102 0 0 0 0 0 0 0 0 0 0 0 0 0 0 0 0 0 0 0 0 0 0 0 0 0 0 0 0 0 0 0 0 0 0 0
-126 -143 -120 -129 -131 -160 -54 0 0 0 0 0 0 0 0 0 0 0 0 0 0 0 0 0 0 0 0 0 0 0 0 0 0 0 0 0 0 0 0 0 0 0 0
-85 -72 -85 -102 -130 -72 -105 0 0 0 0 0 0 0 0 0 0 0 0 0 0 0 0 0 0 0 0 0 0 0 0 0 0 0 0 0 0 0 0 0 0 0 0
-123 -106 -111 -77 -54 -83 0 0 0 0 0 0 0 0 0 0 0 0 0 0 0 0 0 0 0 0 0 0 0 0 0 -18 -11 -3 0 0 0 0 0 0 0 0 0
Wind_Speed
5 3 5 9 10 11 13 14 15 16 18 19 20 19 17 14 14 15 16 17 18 19 21 22 23 24 25 25 25 24 24 24 23 23 23 24 25 25 25 24 24 25 24
10 5 5 7 8 10 12 13 14 16 17 18 18 17 14 13 14 15 16 18 19 20 21 23 24 25 25 25 24 23 23 24 24 22 23 24 25 25 26 25 24 24 24
9 9 8 11 9 11 11 12 13 15 16 16 16 14 11 12 14 15 17 19 20 21 22 24 25 26 26 25 24 23 24 26 25 21 22 23 25 26 27 26 25 24 25
11 10 13 15 13 12 9 10 12 14 15 15 15 12 10 12 13 16 18 19 20 22 23 25 26 26 27 26 24 23 25 28 23 24 22 23 25 26 26 26 25 25 25
10 15 15 14 13 13 7 8 11 12 13 14 13 10 9 12 14 17 18 19 21 23 24 25 26 27 27 26 24 24 27 28 26 24 24 25 26 26 26 26 25 25 24
12 15 15 14 12 11 8 8 10 12 13 12 10 9 11 13 15 17 18 20 21 23 24 25 26 27 27 26 24 24 26 29 25 24 25 26 26 27 27 26 26 26 25
16 16 16 15 12 9 6 8 10 12 13 11 10 10 11 13 15 17 19 20 21 22 24 25 25 26 27 26 26 25 26 28 25 24 25 26 26 27 27 27 27 27 27
7 13 15 12 10 6 6 7 10 12 12 10 10 10 12 14 16 18 18 19 21 21 23 24 24 25 26 26 27 27 28 29 26 24 24 25 26 27 28 28 28 28 28
5 6 12 8 5 4 6 10 12 11 10 9 10 12 14 16 16 16 17 19 19 20 21 22 22 23 24 26 27 28 29 29 28 22 24 25 26 27 28 29 30 30 29
5 7 7 6 6 1 8 9 8 9 12 13 14 15 16 15 14 17 17 17 18 18 19 19 20 21 23 24 26 29 28 29 30 23 24 25 27 28 29 29 30 31 30
7 14 13 11 11 13 15 13 11 13 14 14 13 12 13 14 15 16 16 16 16 16 17 17 17 20 22 25 25 28 29 29 30 26 25 27 28 29 29 30 30 30 29
4 11 20 24 26 24 18 15 15 13 10 9 10 12 13 13 13 14 14 15 15 16 17 19 19 21 23 24 26 27 28 29 29 27 25 27 29 29 29 29 29 29 29
7 31 31 31 29 19 15 17 14 12 12 13 13 12 11 10 10 12 13 14 14 13 18 18 20 23 27 29 30 29 28 28 27 29 27 27 27 28 28 28 28 29 29
7 26 29 27 26 21 19 17 17 15 15 13 12 12 12 12 13 13 12 12 17 18 19 21 24 27 29 31 31 32 32 32 30 31 29 27 26 27 27 27 27 28 30
24 24 9 15 21 16 12 12 11 10 10 10 11 12 12 12 13 14 15 15 16 18 20 24 26 28 29 31 31 33 33 32 32 33 32 27 27 26 26 25 26 28 30
22 21 17 17 15 14 13 13 12 12 12 11 12 13 13 12 12 13 14 15 17 19 20 24 25 28 30 31 32 33 33 32 34 35 35 32 28 26 24 24 27 29 32
20 20 21 17 14 13 12 12 12 11 12 11 12 12 12 12 13 12 14 16 17 19 20 23 26 28 30 31 32 33 32 34 35 36 36 35 28 25 25 25 28 31 32
22 22 22 14 14 14 12 11 10 11 11 11 12 13 12 12 13 13 15 18 18 19 21 23 25 28 30 31 33 34 35 36 35 37 38 37 32 25 24 25 31 33 32
19 19 14 13 14 12 11 12 12 11 10 11 12 12 12 11 13 13 14 17 19 19 21 24 26 27 29 31 32 32 35 37 35 36 34 33 31 28 26 29 32 34 33
17 17 15 13 12 11 10 10 10 10 9 10 10 11 11 11 13 14 14 16 19 20 23 24 25 27 28 31 31 33 35 32 32 33 32 32 31 31 32 34 35 34 34
16 13 14 13 10 8 7 7 7 8 8 9 10 11 11 12 14 16 16 17 19 22 24 25 26 30 29 32 34 37 33 29 32 31 32 33 33 34 35 36 37 34 36
15 11 9 8 7 6 5 5 8 7 8 9 10 10 11 12 14 15 17 19 21 23 25 28 29 30 29 33 36 38 36 38 28 36 35 36 35 35 35 36 35 38 37
8 8 7 6 5 6 8 7 8 8 9 8 8 9 10 11 13 15 17 18 21 23 25 27 29 32 33 33 33 34 40 39 45 34 40 33 37 36 36 36 36 35 36
6 5 5 5 6 9 8 6 6 5 5 5 6 8 9 11 13 15 16 18 20 22 25 27 29 31 33 36 35 32 31 35 45 49 33 39 35 35 36 35 33 33 33
6 7 7 4 9 7 6 5 5 4 6 7 7 8 9 11 13 15 18 20 22 25 27 29 32 33 33 35 35 34 33 35 36 40 48 42 37 34 34 33 31 31 35
6 6 7 9 8 6 7 5 3 5 7 9 9 8 10 14 18 18 20 21 24 26 29 31 32 33 34 34 33 31 34 37 38 38 42 42 42 38 33 28 30 34 33
Wind_Direction
87 130 109 105 98 91 85 78 71 64 60 55 51 45 36 24 22 23 22 24 24 24 25 22 21 19 17 13 10 7 7 9 10 13 13 11 9 8 7 9 7 6 6
102 125 135 118 104 94 88 81 71 63 58 56 50 44 29 25 27 26 28 28 31 28 26 24 21 19 15 9 2 359 2 5 7 14 16 12 7 4 3 4 5 4 3
109 119 121 114 112 97 89 80 69 63 60 53 47 36 25 28 29 29 33 34 33 30 27 26 22 19 16 12 7 360 355 355 3 38 38 27 12 6 2 359 359 1 358
118 120 123 117 110 99 87 75 65 59 58 52 48 39 34 32 32 34 36 35 33 32 31 29 25 22 18 15 9 2 353 347 40 47 33 20 8 358 355 353 350 353 353
132 127 126 118 110 101 89 66 59 54 48 50 52 45 38 38 40 40 33 32 36 38 36 34 28 25 18 12 5 1 1 16 38 37 30 18 13 5 359 354 352 347 346
148 137 126 120 113 106 95 67 57 51 47 49 51 50 45 45 46 41 40 41 40 40 41 36 33 28 20 9 3 1 3 14 27 32 26 23 16 9 2 357 354 350 346
151 129 120 116 109 101 90 67 52 51 53 53 54 51 48 48 46 45 45 43 42 41 36 33 32 29 22 13 5 357 354 6 26 24 19 15 13 8 0 352 346 344 343
162 113 105 103 100 108 86 62 52 56 60 56 52 52 50 48 51 50 46 45 45 40 38 34 29 24 19 12 3 0 355 359 24 20 12 10 7 4 359 353 348 344 340
85 80 78 95 134 123 75 64 64 63 57 52 52 56 58 59 54 48 45 49 43 37 35 27 25 24 15 10 7 0 3 2 17 20 11 6 3 0 356 350 344 343 341
101 89 110 175 190 98 61 60 60 58 66 68 67 68 67 60 50 56 51 45 41 37 32 34 29 21 15 11 4 359 358 356 356 11 6 3 358 354 350 348 346 340 337
106 110 117 102 87 80 80 72 69 75 76 72 68 65 60 54 59 53 46 41 37 30 34 44 49 29 21 14 7 355 356 354 351 359 357 354 351 348 345 344 344 342 339
127 205 106 113 117 112 93 85 87 81 68 59 60 67 61 65 62 43 40 38 39 26 13 20 20 17 13 5 4 356 351 349 347 350 352 349 345 343 343 343 342 342 339
174 139 130 135 128 98 88 94 85 81 77 82 82 76 79 65 54 41 36 33 27 35 12 18 16 8 358 352 350 351 350 350 349 344 344 343 344 342 342 343 342 340 338
102 117 127 126 122 103 99 100 103 101 100 80 61 40 40 33 33 25 48 48 5 25 22 13 2 354 349 347 345 345 344 342 342 340 340 342 342 340 342 340 341 341 335
109 112 75 89 109 92 79 75 74 65 59 44 23 31 17 26 32 17 10 23 13 6 358 357 355 352 349 347 345 341 340 342 341 337 339 340 337 339 338 337 337 338 335
111 113 105 100 89 79 74 63 68 62 60 44 26 12 8 10 18 22 13 15 8 1 0 358 355 351 349 346 343 340 339 340 335 332 329 332 334 334 335 336 334 332 332
111 110 114 93 80 77 74 69 64 58 48 38 39 29 27 23 27 19 11 6 5 3 1 358 354 352 350 346 344 340 342 337 335 333 331 329 334 332 331 330 330 329 329
114 115 114 87 82 82 72 62 50 42 44 43 32 24 26 25 26 19 9 7 4 6 1 359 357 353 351 348 343 338 335 333 333 330 328 325 329 329 329 330 328 327 325
112 111 95 95 95 78 64 68 63 49 42 36 34 31 27 31 26 22 17 11 6 4 0 357 355 354 351 348 345 342 338 332 332 332 338 343 343 342 338 332 331 327 326
111 113 108 103 99 85 75 64 46 38 35 30 34 41 45 37 29 26 22 13 6 3 358 357 356 355 352 348 345 342 338 339 338 338 341 340 339 336 332 329 328 326 325
120 114 121 119 109 97 78 35 25 24 44 56 59 57 52 36 25 25 18 12 5 357 356 356 352 349 348 347 341 337 339 341 339 338 338 337 333 331 328 328 326 326 322
134 125 122 115 111 111 86 77 33 67 71 74 62 53 41 29 21 13 7 2 358 354 351 349 348 346 346 344 339 336 333 331 338 333 330 329 330 330 329 327 326 322 321
135 136 125 122 116 120 128 105 62 69 66 46 50 34 23 17 14 9 5 359 355 352 348 347 346 343 340 341 341 336 330 327 326 333 328 331 330 327 327 327 324 323 321
141 135 132 131 141 148 132 106 91 65 54 42 28 21 17 15 7 2 359 354 350 351 347 345 345 343 340 335 335 335 333 330 326 324 331 329 332 330 329 328 327 326 326
156 152 158 155 143 138 134 114 90 59 14 1 359 359 356 354 352 350 349 349 350 347 345 343 340 339 338 334 333 333 332 330 329 325 322 326 329 331 330 330 330 329 325
152 176 163 149 143 130 124 114 71 5 4 12 14 2 350 345 345 349 353 351 348 345 342 341 339 338 336 335 333 332 330 329 329 327 323 324 324 327 328 332 329 327 325